[Iaude] MPEC V201: 2023 VY6 [a=3.55,e=0.66,i=8.6,H=19.7]
    mpec at marsden.cfa.harvard.edu 
    mpec at marsden.cfa.harvard.edu
       
    Sat Nov 11 12:40:17 EST 2023
    
    
  
M.P.E.C. 2023-V201                            Issued 2023 November 11, 17:38 UT
     The Minor Planet Electronic Circulars contain information on unusual
         minor planets, routine data on comets and natural satellites,
         and occasional editorial announcements.  They are published
    on behalf of Division F of the International Astronomical Union by the
          Minor Planet Center, Smithsonian Astrophysical Observatory,
                          Cambridge, MA 02138, U.S.A.
			  
             Prepared using the Tamkin Foundation Computer Network
                              MPC at CFA.HARVARD.EDU
            URL https://www.minorplanetcenter.net/    ISSN 1523-6714
                                    2023 VY6                                    
Observations:
     K23V06Y*1C2023 11 07.48696108 36 17.219+03 42 59.80         20.69GVEV201G96
     K23V06Y 1C2023 11 07.49216408 36 18.324+03 42 57.20         21.31GVEV201G96
     K23V06Y 1C2023 11 07.50261408 36 20.570+03 42 51.59         20.81GVEV201G96
     K23V06Y KC2023 11 07.52104708 36 24.520+03 42 42.59         20.74GVEV201I52
     K23V06Y KC2023 11 07.52233508 36 24.764+03 42 42.01         20.92GVEV201I52
     K23V06Y KC2023 11 07.52499408 36 25.362+03 42 40.90         20.63GVEV201I52
     K23V06Y |C2023 11 08.31655 08 39 18.66 +03 36 22.8          21.1 VuEV201807
     K23V06Y |C2023 11 08.32470 08 39 20.42 +03 36 17.9          20.8 VuEV201807
     K23V06Y |C2023 11 08.33285 08 39 22.13 +03 36 13.9          21.1 VuEV201807
     K23V06Y KC2023 11 09.45514108 43 25.020+03 26 50.50               VEV201I52
     K23V06Y KC2023 11 09.45762608 43 25.550+03 26 50.20               VEV201I52
     K23V06Y KC2023 11 09.46011008 43 26.130+03 26 48.90         22.00GVEV201I52
     K23V06Y KC2023 11 09.46259108 43 26.620+03 26 48.00         21.12GVEV201I52
     K23V06Y KC2023 11 10.51751708 47 12.433+03 18 20.70         21.77GVEV201I52
     K23V06Y KC2023 11 10.52382608 47 13.715+03 18 17.93         20.85GVEV201I52
     K23V06Y KC2023 11 10.52736108 47 14.446+03 18 16.74         20.63GVEV201I52
     K23V06Y 1C2023 11 11.15472 08 49 27.91 +03 13 15.7          21.2 VXEV201033
     K23V06Y 1C2023 11 11.15657 08 49 28.26 +03 13 14.9          21.2 VXEV201033
     K23V06Y 1C2023 11 11.15842 08 49 28.66 +03 13 13.8          21.3 VXEV201033
     K23V06Y KC2023 11 11.16694 08 49 30.47 +03 13 10.6          21.0 GVEV201204
     K23V06Y KC2023 11 11.19296 08 49 35.87 +03 12 58.6                VEV201204
     K23V06Y KC2023 11 11.40735208 50 21.48 +03 11 18.7          20.8 GVEV201H21
     K23V06Y KC2023 11 11.41021708 50 22.08 +03 11 17.3          21.0 GVEV201H21
     K23V06Y KC2023 11 11.41308008 50 22.66 +03 11 16.1          20.9 GVEV201H21
Observer details:
033 Karl Schwarzschild Observatory, Tautenburg.  Observers S. Melnikov, C.
    Hogner, F. Ludwig, M. Hartmann, B. Stecklum.  Measurer B. Stecklum.
    1.34-m f/3 Schmidt + CCD.
204 Schiaparelli Observatory.  Observers L. Buzzi, G. Galli.  0.84-m f/3.5
    reflector + CCD.
807 Cerro Tololo Observatory, La Serena.  Observers T. Linder, R. Holmes, L.
    Horn.  0.61-m f/6.5 Dall-Kirkham Astrograph + CCD.
G96 Mt. Lemmon Survey.  Observer D. Rankin.  Measurers E. C. Beshore, D. Fay,
    J. B. Fazekas, D. C. Fuls, A. R. Gibbs, A. D. Grauer, H. Groeller, J. K.
    Hogan, R. A. Kowalski, S. M. Larson, G. J. Leonard, D. Rankin, R. L.
    Seaman, F. C. Shelly, K. W. Wierzchos.  1.5-m reflector + 10K CCD.
H21 Astronomical Research Observatory, Westfield.  Observer R. Holmes.
    Measurers T. Linder, R. Holmes, L. Horn.  0.81-m f/4.0 astrograph + CCD.
I52 Steward Observatory, Mt. Lemmon Station.  Observer H. Groeller.  Measurers
    E. C. Beshore, D. Fay, J. B. Fazekas, D. C. Fuls, A. R. Gibbs, A. D.
    Grauer, H. Groeller, J. K. Hogan, R. A. Kowalski, S. M. Larson, G. J.
    Leonard, D. Rankin, R. L. Seaman, F. C. Shelly, K. W. Wierzchos.  1.0-m
    prime focus + CCD.
Orbital elements:
2023 VY6                                                 Earth MOID = 0.2702 AU
Epoch 2023 Sept. 13.0 TT = JDT 2460200.5                Bell                    
M 351.18732              (2000.0)            P               Q                  
n   0.14716313     Peri.  302.42791     +0.17449188     -0.97934058             
a   3.5530667      Node   137.14352     +0.94633009     +0.13811747             
e   0.6567487      Incl.    8.64177     +0.27205136     +0.14770102             
P   6.70           H   19.79          G   0.15           U   9                  
Residuals in seconds of arc
231107 G96  0.2+  0.2+    231108 807  0.2-  0.3-    231111 033  0.3+  0.2+
231107 G96  0.0   0.2+    231109 I52  0.3-  0.9-    231111 033  0.2-  0.3+
231107 G96  0.1+  0.2-    231109 I52  0.2-  0.0     231111 033  0.0   0.0
231107 I52  0.0   0.1-    231109 I52  0.7+  0.1-    231111 204  0.1-  0.0
231107 I52  0.4-  0.0     231109 I52  0.2+  0.2+    231111 204  0.2-  0.2+
231107 I52  0.0   0.2+    231110 I52  0.5+  0.1-    231111 H21  0.0   0.1-
231108 807  0.1-  0.6+    231110 I52  0.0   0.1+    231111 H21  0.1+  0.1-
231108 807  0.2+  0.3-    231110 I52  0.1-  0.6+    231111 H21  0.1-  0.0
Ephemeris:
2023 VY6                 a,e,i = 3.55, 0.66, 9                   q = 1.2196
Date    TT    R. A. (2000) Decl.     Delta      r    Elong.  Phase     V
2023 10 12    06 51 41.5 +07 29 42   0.7242  1.2797    94.6    51.0    21.5
...
2023 10 27    07 52 28.6 +05 23 02   0.6724  1.2359    93.7    53.4    21.3
...
2023 11 04    08 23 21.2 +04 12 40   0.6552  1.2237    93.7    54.0    21.3
...
2023 11 10    08 45 21.5 +03 22 35   0.6458  1.2198    94.0    54.1    21.2
2023 11 11    08 48 54.8 +03 14 39   0.6444  1.2197    94.1    54.1    21.2
2023 11 12    08 52 25.9 +03 06 51   0.6432  1.2196    94.2    54.1    21.2
...
2023 11 18    09 12 46.5 +02 23 33   0.6367  1.2220    95.0    53.7    21.2
...
2023 11 26    09 37 40.6 +01 37 22   0.6303  1.2325    96.8    52.7    21.2
...
2023 12 11    10 16 40.9 +00 57 06   0.6218  1.2732   102.5    49.0    21.1
M. P. C. Staff               (C) Copyright 2023 MPC           M.P.E.C. 2023-V201
    
    
More information about the Iaude
mailing list